RH
75 62 50 50 58 63 65 63 63 70 70 74 81 89 74 25 3 6 4 4 3 3 3 2 3 2 3 3 3 3 3 3 3 3 3 3 4 4 5 5 5 5 5 6 6 6 6 5 4 4 3 3 3 3 3 2 3 2 2 2 2 2 2 2 2 3 3 3 3 3 3 3 3 3 3 3 4 4 5 6 6 6 7 7 7 7 7 6
78 73 60 48 52 58 62 62 60 66 67 71 76 88 84 32 2 6 4 4 3 3 3 2 3 2 3 3 3 3 3 3 3 3 3 3 3 4 5 5 5 5 5 6 6 6 5 5 4 4 3 3 3 3 2 2 2 2 2 2 2 2 2 2 2 3 3 3 3 3 3 3 3 3 3 4 5 6 6 7 7 7 8 7 7 6 6 5
78 78 71 56 52 53 58 60 55 58 62 70 72 83 87 37 2 6 4 4 3 3 4 2 3 2 3 3 3 3 3 3 3 3 3 3 3 4 4 5 5 5 6 6 6 6 5 5 4 4 3 3 3 3 3 3 3 2 2 2 2 2 2 2 2 2 3 2 3 2 3 3 3 4 5 6 6 7 7 8 8 8 7 7 6 5 5 4
71 78 78 66 58 53 54 55 47 47 55 68 69 79 84 35 2 6 4 5 3 3 3 2 3 2 3 3 3 3 3 3 3 3 3 3 3 4 4 4 5 5 6 6 6 6 5 5 5 5 4 4 3 3 4 3 3 3 2 3 2 2 2 2 2 2 3 2 3 3 3 4 5 6 6 6 7 7 8 8 8 7 7 5 5 4 4 4
55 70 79 73 64 52 48 45 37 38 49 64 65 74 74 28 3 6 4 5 3 3 3 3 3 2 3 3 3 3 3 3 3 3 3 3 4 4 5 4 5 5 6 6 6 7 6 6 5 5 5 5 4 3 4 3 3 3 3 3 2 3 2 2 2 2 3 3 4 4 5 5 6 6 6 7 7 8 9 8 8 7 6 5 4 4 4 4
44 55 67 74 69 50 41 34 30 35 44 58 57 66 62 18 3 6 4 6 2 3 3 3 3 2 3 3 3 3 3 4 3 3 3 4 4 4 4 4 5 5 5 6 6 7 6 6 6 6 6 5 5 4 4 3 3 3 3 3 3 3 2 3 3 3 4 4 5 6 6 6 6 6 6 7 7 9 9 8 7 5 5 4 3 4 4 5
46 47 53 65 64 47 36 27 27 30 36 47 45 60 54 10 2 6 3 6 2 4 3 3 3 2 4 3 4 3 3 4 3 4 3 4 4 4 5 4 5 5 6 6 7 7 7 7 6 6 6 6 6 5 5 4 4 4 4 4 3 3 3 3 4 4 5 5 6 7 7 6 6 7 7 8 8 9 8 7 6 4 4 3 3 5 5 6
52 49 48 55 52 39 31 26 24 22 30 38 37 61 51 6 3 6 4 6 2 4 3 3 4 2 4 3 4 4 3 4 3 4 3 4 4 4 5 4 5 5 6 6 7 8 7 7 7 6 6 6 6 6 6 6 5 5 4 4 4 4 4 5 5 5 6 6 7 7 7 7 6 7 8 9 9 8 7 6 5 4 3 4 5 6 7 8
54 52 49 47 42 33 27 25 22 21 33 37 43 66 45 4 4 5 4 6 2 4 3 3 3 2 4 3 4 3 4 4 3 4 3 4 4 4 5 4 5 5 6 6 7 8 8 7 6 6 6 5 6 6 6 6 6 6 5 6 5 5 6 6 6 7 8 7 8 8 8 8 7 8 9 9 9 7 6 5 4 4 4 5 6 7 8 9
47 45 44 40 33 28 26 24 23 31 39 44 60 64 29 3 5 4 5 5 2 4 3 3 3 3 3 3 4 3 4 4 3 4 4 4 4 4 5 5 6 5 6 7 7 8 7 7 6 6 6 6 7 6 7 6 6 6 6 7 6 6 7 7 8 8 8 8 8 10 11 10 8 9 9 8 7 6 5 4 4 4 5 6 7 9 10 11
50 39 32 30 26 24 26 25 32 44 43 55 71 47 11 4 5 4 6 4 3 4 3 4 3 3 3 3 4 4 4 4 4 4 4 4 4 4 5 5 6 6 7 8 8 8 7 7 6 6 6 7 7 7 7 7 7 7 7 8 7 8 8 9 9 9 9 9 10 11 13 11 8 7 7 6 7 6 5 4 4 4 6 8 9 11 11 13
73 54 29 21 22 20 24 33 47 54 49 66 69 28 5 6 4 5 6 4 4 3 3 3 3 3 3 3 4 4 4 4 4 4 4 4 4 5 5 6 7 7 8 8 7 7 6 6 6 6 7 8 8 8 8 8 9 9 9 9 10 9 10 10 10 10 10 11 11 11 13 12 7 6 5 5 6 6 5 4 4 6 8 9 11 12 14 15
87 77 46 21 19 24 36 48 59 57 58 77 63 18 5 6 4 6 5 4 4 3 4 3 3 3 3 4 4 4 4 4 4 4 4 5 5 5 6 6 7 7 8 7 7 6 6 7 7 8 8 9 9 9 10 11 11 11 11 11 11 11 11 11 11 11 11 11 10 8 11 12 7 4 5 6 6 6 5 4 5 8 9 10 12 14 17 19
84 80 59 29 26 41 52 56 59 59 69 83 55 13 5 5 5 7 4 4 3 3 4 3 4 3 3 4 4 4 4 4 4 4 5 5 5 5 6 6 7 7 7 7 7 7 7 8 9 10 10 10 10 11 12 12 12 12 12 12 11 11 11 11 11 11 11 10 10 8 10 12 9 5 5 5 6 6 6 5 6 9 10 12 14 17 21 22
79 70 57 38 38 48 52 54 61 69 82 84 46 11 6 5 6 6 5 5 3 4 4 3 4 3 4 4 4 4 4 5 5 5 6 5 5 5 6 6 6 7 7 7 8 9 10 10 11 11 11 11 12 12 12 12 12 11 12 11 11 11 11 11 11 11 10 10 10 8 10 13 10 7 6 5 5 6 7 7 8 10 12 14 18 21 25 26
69 59 49 42 44 49 49 57 70 82 90 76 37 9 5 5 6 6 5 4 4 4 4 4 4 3 4 4 4 5 4 5 5 6 6 5 6 6 7 7 7 8 8 9 10 11 11 11 12 12 12 12 12 12 12 11 11 11 11 11 11 11 11 11 11 10 10 10 10 9 10 13 12 8 7 6 6 6 7 9 10 12 14 18 23 26 29 30
62 57 50 51 60 62 60 69 82 88 82 59 27 8 5 4 6 6 6 5 4 4 4 4 3 3 4 4 5 5 5 5 5 6 6 6 6 7 8 8 9 9 10 11 11 11 12 12 12 12 12 12 11 11 10 10 10 10 10 10 11 11 11 11 11 11 10 10 11 10 11 14 12 8 7 6 6 8 9 11 12 14 18 23 28 31 32 33
74 73 72 75 80 78 73 81 86 79 64 42 20 7 4 5 7 7 6 5 4 4 4 3 3 3 4 5 5 5 5 5 6 6 6 7 8 9 10 10 10 10 10 11 10 11 10 10 11 10 11 10 10 10 9 10 9 10 10 10 11 11 11 11 11 10 10 11 12 11 11 13 12 8 8 7 7 10 12 13 14 18 23 29 33 35 36 36
80 79 81 81 84 84 84 88 82 67 53 36 17 7 5 5 6 7 7 5 4 4 5 4 3 4 4 5 5 5 6 6 6 7 8 9 9 10 10 9 10 9 9 9 9 9 9 9 9 9 9 9 9 9 9 9 9 9 10 10 11 11 12 12 11 10 9 10 12 12 11 12 10 9 8 9 10 12 14 15 18 23 29 34 38 39 39 38
78 77 78 78 80 83 84 83 73 62 52 33 14 7 5 5 7 8 7 6 5 5 5 5 4 4 5 5 5 6 6 7 8 8 9 9 9 10 9 8 9 8 8 8 8 8 8 8 8 8 9 8 8 9 9 9 9 10 10 10 11 11 12 12 11 11 9 9 11 11 12 13 11 9 10 11 13 14 16 19 23 29 35 40 43 42 41 40
86 84 84 83 82 83 84 83 74 63 54 35 15 7 5 5 8 9 8 6 6 6 5 5 4 5 5 5 6 7 7 9 9 9 9 9 9 9 8 8 8 8 8 8 8 8 8 8 8 8 8 8 8 8 8 9 9 10 10 11 12 11 12 12 12 12 10 9 10 10 11 15 13 10 12 13 15 17 19 24 30 35 41 45 47 45 43 43
91 91 90 89 89 88 91 92 84 72 63 41 16 6 6 7 10 10 9 7 6 5 4 4 5 5 6 6 7 8 9 10 9 10 9 9 9 8 8 8 8 8 8 8 8 7 7 7 7 7 7 8 8 8 8 9 9 10 11 11 12 12 11 11 12 12 11 9 9 8 9 13 15 14 15 15 18 21 23 29 37 42 47 50 50 48 46 46
85 89 92 95 95 95 96 96 89 83 76 49 17 6 5 6 10 10 9 8 6 5 4 5 6 6 7 7 8 8 9 10 9 10 9 9 9 8 9 8 8 8 7 7 7 7 7 7 7 7 7 7 7 8 8 9 10 11 11 12 12 12 11 11 11 12 13 11 9 7 7 10 16 18 18 18 21 26 30 36 44 48 53 54 53 52 49 47
78 84 90 95 98 99 99 98 95 92 87 57 20 7 7 6 8 10 10 9 6 5 5 6 6 7 7 8 8 9 9 10 9 9 9 8 8 8 8 8 8 8 7 7 7 7 7 7 7 7 7 7 7 8 8 9 11 11 12 12 12 12 12 11 10 11 13 13 12 9 6 8 15 21 22 20 24 30 38 44 49 53 56 58 57 55 51 48
67 78 88 93 96 98 99 100 99 96 91 69 31 11 9 8 9 11 10 8 5 6 6 6 7 8 8 9 9 9 9 9 9 9 8 8 8 7 7 7 7 7 7 7 7 7 7 7 7 7 7 7 8 8 9 10 11 12 13 13 13 12 12 12 11 10 10 11 12 11 8 8 14 26 28 23 27 37 47 51 53 57 60 62 61 58 54 51
48 62 77 90 95 97 99 97 94 91 86 74 54 31 16 10 10 11 10 6 5 6 7 8 9 8 9 9 9 9 9 9 9 8 8 8 7 7 7 7 6 6 7 7 6 7 7 7 7 7 7 8 8 9 10 12 12 13 14 13 13 13 12 12 11 10 9 10 11 12 13 10 14 30 33 28 35 46 54 56 56 60 62 63 63 60 57 52
39 47 60 79 95 101 100 92 83 79 70 56 47 33 17 10 10 11 10 6 5 8 9 10 10 9 9 9 9 9 8 8 8 8 8 8 7 7 7 6 6 6 6 7 6 7 7 7 7 7 7 8 9 10 12 14 14 14 14 13 13 12 11 11 10 10 10 10 12 14 16 13 15 29 33 33 44 53 58 62 63 61 59 61 63 60 56 52
39 43 48 63 86 98 100 94 81 71 59 42 28 17 10 10 11 12 11 7 8 12 12 10 9 9 9 8 8 8 8 8 8 8 8 8 7 7 6 6 6 6 6 6 6 6 6 6 7 7 8 9 10 12 14 15 15 14 14 13 13 11 10 9 9 10 10 11 14 15 18 16 16 29 36 38 50 60 66 71 68 60 57 60 63 59 55 53
39 40 47 63 85 95 97 99 91 75 59 42 25 14 11 13 14 16 15 12 14 16 14 11 9 9 9 9 10 9 9 9 9 9 8 7 7 6 6 6 6 6 6 6 6 6 6 6 7 8 9 11 13 15 16 16 15 15 14 13 11 9 8 8 9 10 10 12 16 17 19 18 18 32 42 46 60 73 76 78 72 62 59 61 61 59 57 55
35 34 47 71 92 97 96 99 98 89 73 53 34 22 19 19 21 23 21 18 18 15 11 10 10 10 10 11 11 11 10 10 9 8 7 7 7 6 6 6 6 6 6 6 6 6 6 7 8 9 11 14 15 17 17 16 16 15 13 11 9 7 7 8 9 10 11 14 16 18 21 21 23 36 48 58 72 79 79 83 77 63 59 59 56 58 60 59
30 32 49 75 89 91 93 94 93 93 86 68 46 30 26 28 29 29 23 18 15 10 7 8 9 9 10 10 10 10 9 8 7 7 7 6 6 6 6 6 6 6 6 6 6 6 7 8 9 11 14 16 17 17 17 16 15 13 12 10 8 7 7 8 9 10 13 15 17 21 22 23 31 45 57 69 76 78 86 93 79 59 55 54 52 59 66 64
22 35 63 86 88 85 88 89 88 89 89 79 63 49 42 39 38 34 27 20 15 9 6 7 7 8 8 9 9 8 8 7 6 6 6 6 6 6 6 6 6 6 5 6 6 6 7 9 12 14 16 17 17 17 16 14 13 11 11 11 10 9 8 9 11 12 15 17 19 23 24 24 36 52 66 72 75 83 97 99 77 53 47 49 51 58 63 61
13 31 73 95 90 89 91 86 83 81 82 80 74 66 58 50 44 37 29 22 14 8 6 6 6 7 8 7 7 7 7 6 6 6 5 5 6 6 6 7 7 6 6 6 6 7 8 11 14 16 16 17 16 15 14 12 10 10 11 12 13 14 13 12 12 14 18 20 22 25 27 28 37 55 70 74 78 91 102 95 72 49 44 49 51 49 47 45
9 31 73 90 90 93 81 60 52 49 48 49 46 45 45 43 39 32 24 16 10 6 6 6 6 6 6 6 7 6 6 6 5 5 5 5 5 6 7 7 7 7 7 7 8 9 10 12 14 15 14 14 13 12 11 10 9 10 12 14 15 18 20 18 17 19 21 23 24 26 31 33 39 58 73 75 81 94 94 82 63 50 50 51 45 38 34 34
22 54 84 90 91 90 63 32 24 23 22 24 24 26 28 28 26 22 17 12 9 8 8 8 8 8 8 7 6 6 5 5 5 5 6 6 6 7 7 8 8 8 9 10 10 11 12 12 12 12 11 10 9 10 10 11 11 12 13 15 17 21 24 24 23 25 26 25 23 27 35 36 40 58 70 73 83 88 78 63 53 51 52 46 39 36 35 36
52 80 92 93 92 82 51 22 17 17 16 17 20 22 23 22 22 20 18 16 15 14 13 12 11 10 9 8 6 6 6 5 6 6 6 7 7 7 8 8 9 10 11 11 12 12 11 10 9 8 8 8 9 10 11 13 14 14 14 17 20 22 26 28 27 26 28 28 25 30 39 36 38 54 64 71 80 76 62 50 47 52 53 45 41 41 40 42
78 94 92 91 91 79 47 23 20 20 17 17 19 20 21 21 21 19 18 17 15 14 13 11 10 9 8 7 7 7 6 6 7 6 7 7 8 9 9 9 10 11 11 11 11 10 9 8 7 7 8 10 11 11 13 15 16 18 18 20 23 24 28 31 29 28 29 31 30 33 40 38 37 47 57 63 65 56 47 45 50 57 55 48 44 44 44 46
88 97 97 92 84 71 49 33 31 30 25 23 22 22 23 22 20 19 17 15 13 12 10 9 8 8 8 7 8 7 7 7 7 7 8 8 9 9 9 10 11 11 10 9 8 7 7 6 6 8 10 11 13 13 15 17 18 20 21 24 28 30 32 32 32 34 36 37 35 32 34 34 34 43 53 54 47 38 36 41 47 51 49 43 41 41 43 45
89 94 100 93 76 62 51 42 38 37 33 27 23 22 22 21 20 18 17 15 13 12 10 10 9 8 8 8 8 8 8 8 8 9 9 9 10 10 10 10 9 9 8 7 7 7 8 8 8 9 11 13 15 15 17 18 19 20 23 27 31 34 36 37 38 42 44 42 36 30 29 28 31 45 55 47 35 29 29 32 37 40 41 40 38 37 41 46
94 96 99 93 77 61 52 48 46 44 36 24 18 19 19 19 18 17 15 14 13 12 11 10 10 9 9 9 8 8 8 9 10 10 10 10 10 10 9 9 8 8 8 7 9 9 9 10 9 11 13 15 16 18 19 20 21 22 26 30 35 38 39 40 41 45 49 43 33 30 26 22 31 49 50 38 31 31 32 32 34 38 43 42 40 43 49 56
92 95 97 95 88 77 67 61 55 45 29 16 14 17 18 19 18 16 15 13 12 12 11 10 10 10 9 10 10 9 9 10 11 10 10 10 9 8 8 8 8 8 8 9 10 10 10 11 10 12 15 16 18 20 20 21 24 26 29 34 40 43 42 41 38 38 42 37 31 30 20 15 36 50 40 33 36 38 38 36 36 42 48 46 48 57 68 77
85 81 77 76 73 69 64 54 44 31 19 13 13 15 17 18 16 15 14 12 11 11 10 11 11 11 11 11 10 10 10 10 10 9 9 8 8 8 8 8 9 9 9 10 10 11 11 12 12 14 16 17 19 21 21 25 28 29 33 38 42 42 40 37 32 29 30 28 28 28 16 16 37 46 36 36 41 40 41 43 43 47 53 59 67 78 89 95
80 63 54 50 43 41 41 35 32 28 22 18 15 15 17 16 14 13 12 11 11 11 11 11 11 11 11 10 10 10 9 9 9 8 8 8 8 9 8 9 9 9 10 11 11 13 13 13 14 14 15 18 21 23 25 28 28 28 32 35 35 33 31 28 27 26 24 25 27 25 18 21 34 38 38 41 42 43 47 51 53 58 67 79 89 96 101 102
80 66 55 50 42 40 39 34 32 28 23 18 16 16 16 13 13 12 11 11 11 11 11 11 11 10 10 9 9 9 8 8 8 8 8 9 9 9 10 10 11 11 11 12 12 13 13 15 16 15 15 17 20 22 23 22 20 21 24 26 25 24 24 24 25 25 23 25 31 30 24 26 33 37 43 45 45 49 54 60 71 82 90 96 99 100 99 95
71 61 48 37 30 29 27 24 22 20 18 17 16 14 13 12 11 10 11 11 11 11 11 10 10 9 8 9 8 8 9 8 9 9 9 10 10 11 11 11 12 12 12 12 12 13 15 18 19 18 17 15 15 17 17 16 17 19 22 22 22 23 25 26 25 26 26 26 31 35 29 27 34 43 49 50 52 61 70 81 92 98 102 102 97 92 87 79
49 37 26 17 13 14 14 15 16 16 16 15 13 12 11 11 11 11 11 11 10 10 9 8 9 8 8 9 9 9 10 10 10 11 10 11 11 11 12 12 12 12 12 13 14 14 15 17 18 17 16 15 16 17 18 19 20 22 23 23 24 24 25 27 27 28 29 26 28 37 38 35 41 50 56 63 73 82 89 95 97 98 99 96 88 80 73 65
29 18 12 9 10 11 13 14 14 14 13 12 11 11 11 10 10 10 9 9 9 9 8 8 9 9 9 10 10 11 11 11 11 11 11 12 12 12 12 13 13 14 14 14 14 13 13 14 15 16 17 18 20 21 21 22 22 22 23 22 22 22 21 24 28 29 29 29 32 42 47 49 58 67 76 85 90 90 90 92 94 94 90 83 74 66 58 50
13 9 9 11 13 13 14 13 12 11 10 10 10 10 10 9 9 9 9 9 9 9 9 10 10 11 11 11 11 12 12 11 12 12 12 12 13 13 13 13 13 13 13 13 13 13 13 15 17 18 20 22 23 23 23 23 23 21 19 17 17 17 19 24 30 32 35 42 49 57 63 70 80 86 88 93 95 92 92 93 92 86 77 68 60 51 43 36
10 11 12 13 13 12 11 10 9 10 9 9 9 9 9 9 9 9 10 10 11 11 12 12 12 13 12 12 12 11 11 11 11 12 12 12 13 13 12 13 13 13 14 14 15 16 17 18 19 20 22 24 24 24 23 22 20 17 15 15 16 19 25 32 39 46 54 63 71 77 81 86 92 92 89 93 98 98 95 90 80 70 60 52 44 36 31 27
12 12 11 11 11 10 9 9 9 9 9 9 9 9 10 10 11 12 12 12 13 13 13 13 13 13 12 11 11 11 11 11 11 11 12 12 13 14 14 15 16 17 18 18 19 20 20 20 22 22 23 25 24 22 20 17 16 15 16 21 27 36 47 57 63 71 79 82 85 88 88 87 91 93 93 96 98 93 84 73 63 53 44 38 32 28 25 22
10 10 9 9 9 8 9 9 9 9 9 10 11 12 12 13 13 14 15 15 15 15 15 14 13 12 12 11 11 11 12 13 13 14 15 16 17 18 18 19 20 20 21 21 22 23 23 23 24 23 23 23 21 18 16 15 19 25 33 43 55 67 78 84 89 95 94 87 85 89 90 89 90 89 88 88 85 76 63 53 46 39 33 29 26 24 21 18
9 9 9 8 8 9 9 10 10 11 12 13 13 14 15 16 17 17 17 17 16 16 14 14 13 13 13 13 14 15 16 16 17 17 18 19 20 21 21 22 23 23 24 24 24 24 24 23 23 21 19 17 16 16 21 30 41 52 61 72 81 88 94 97 100 103 100 94 92 94 94 93 91 86 79 73 67 59 48 41 35 30 27 25 23 20 16 12
Wind_Speed
25 22 20 20 19 17 16 15 15 13 12 10 8 7 7 7 9 10 9 10 11 11 12 13 13 11 8 6 5 5 4 4 4 4 4 4 4 5 4 3 1 1 2 2 3 4 5 7 8 9 9 9 9 9 9 9 9 9 9 9 10 10 10 11 12 13 14 15 16 16 17 18 19 20 20 22 23 25 26 28 30 32 32 33 34 35 36 37
26 25 22 21 20 19 17 17 16 16 14 12 9 8 8 9 10 11 10 10 12 12 11 11 12 10 7 5 4 4 4 3 3 3 3 4 4 4 3 2 0 2 3 3 4 6 7 8 9 10 10 10 9 9 9 10 10 10 10 10 12 12 12 13 14 15 16 17 18 19 19 20 20 21 21 23 25 26 28 30 32 33 34 34 36 36 38 39
27 26 25 23 21 20 19 18 18 18 16 14 12 8 9 10 11 12 11 10 12 12 11 10 11 10 7 6 5 4 4 4 3 3 3 4 5 4 2 1 1 2 3 4 6 7 8 9 10 11 11 11 11 11 11 11 11 11 11 12 13 14 14 14 15 17 18 19 19 20 20 21 21 22 23 25 27 28 30 32 33 35 35 36 37 38 40 41
28 27 26 25 23 22 22 20 18 19 18 16 14 10 9 11 12 13 12 11 13 13 12 11 11 11 9 7 5 5 4 4 3 3 4 5 5 3 2 2 2 3 4 5 6 8 9 10 11 12 12 13 13 13 13 13 13 13 13 13 14 15 15 16 16 18 18 19 19 20 21 22 23 24 26 27 29 30 31 34 35 36 37 38 39 40 41 42
29 28 27 26 25 24 23 20 17 19 20 18 16 11 10 13 13 14 13 12 14 14 13 12 12 11 9 7 6 5 4 4 4 4 4 5 5 3 3 3 4 4 5 6 7 9 10 11 13 13 14 15 15 14 14 14 14 14 14 15 16 16 16 17 17 18 18 19 19 20 22 23 26 27 28 30 31 31 32 35 37 38 39 40 41 42 42 42
29 29 28 27 26 24 22 19 16 18 20 19 16 12 12 14 14 15 13 13 14 15 14 12 12 11 9 7 5 4 4 4 4 4 4 4 4 3 4 5 5 5 6 7 8 10 11 12 14 14 15 15 16 16 16 16 16 16 16 16 17 17 18 18 19 19 19 20 21 22 24 26 29 29 30 32 32 32 34 36 38 39 41 41 42 42 42 42
27 28 28 28 27 25 23 18 15 16 17 17 15 11 13 15 15 16 14 13 14 14 14 12 12 11 9 7 4 3 3 4 4 4 4 4 4 5 6 6 6 6 7 8 9 11 12 13 14 15 16 16 16 17 17 17 17 17 17 18 19 19 19 19 20 21 21 23 23 25 26 29 31 32 32 33 34 34 36 37 40 41 42 42 41 41 41 42
25 26 27 27 26 25 23 19 16 15 15 15 13 12 14 15 15 15 13 13 14 14 14 12 12 10 9 7 5 4 4 4 5 5 5 5 6 7 7 7 7 7 8 9 10 12 13 14 16 16 16 17 18 17 18 19 18 19 19 19 20 21 21 21 22 23 24 25 26 27 28 31 34 34 33 35 34 35 37 39 41 42 42 41 41 41 41 42
22 23 24 25 25 25 23 20 17 15 14 14 13 13 16 15 15 15 13 13 14 14 13 12 11 10 9 7 5 4 4 5 5 6 6 7 8 8 9 9 9 9 10 11 11 12 14 15 16 17 17 18 18 18 19 20 19 20 20 21 22 22 22 22 24 25 26 27 28 29 30 32 35 35 35 35 35 36 39 40 42 42 41 40 40 41 41 42
19 20 22 23 23 24 24 21 17 15 14 13 13 16 17 15 16 15 13 13 13 14 13 11 10 9 8 6 4 4 5 5 6 6 7 8 9 10 10 10 10 10 11 11 12 13 15 16 17 18 18 18 19 19 19 20 20 21 21 22 23 24 24 24 25 26 28 29 29 30 30 33 36 36 36 36 36 38 40 42 43 42 40 40 41 41 41 42
17 18 20 22 23 24 24 21 17 16 14 13 15 17 16 15 16 15 13 12 13 13 13 12 10 9 8 6 5 5 6 6 7 7 8 9 11 11 11 11 11 11 11 12 13 14 16 17 18 18 18 19 19 19 20 20 21 22 22 23 24 25 26 26 26 27 29 30 30 30 30 33 37 37 37 37 38 39 41 43 43 41 40 40 41 41 42 42
15 17 19 22 24 24 23 20 17 16 14 14 16 17 16 16 16 15 13 12 13 13 13 12 11 9 8 6 5 6 6 7 7 8 9 10 11 12 11 11 11 11 12 13 14 15 16 17 18 18 18 19 19 20 20 21 21 22 23 24 25 26 27 27 27 28 30 30 31 31 29 31 37 39 39 40 39 40 41 43 42 40 40 41 41 41 42 42
16 17 19 22 23 23 22 19 16 15 14 15 17 17 17 17 16 15 13 13 13 13 13 12 11 9 7 6 6 7 7 7 7 8 9 11 11 11 11 11 11 11 13 14 15 16 17 17 18 18 18 19 20 20 20 21 22 23 24 25 26 27 28 29 29 30 31 31 32 33 30 31 38 41 41 41 41 41 41 43 42 40 40 41 41 42 42 42
17 18 19 21 22 21 20 18 16 15 15 16 17 17 17 17 16 15 14 13 13 12 12 12 10 8 7 7 7 8 7 8 7 8 10 11 11 11 11 11 12 13 14 14 15 16 16 17 17 18 18 19 20 20 21 21 22 24 24 26 27 28 30 30 30 31 32 32 33 35 33 33 39 43 43 43 42 41 41 42 42 40 41 41 41 42 41 41
18 19 20 21 21 20 19 17 16 16 16 18 18 18 18 18 16 15 14 14 13 12 12 11 10 8 7 7 8 8 8 8 8 9 10 11 11 11 11 11 12 13 13 14 14 15 16 17 17 18 19 19 20 21 22 23 24 25 26 27 28 29 31 31 31 32 33 33 34 36 36 36 41 44 45 45 44 42 41 42 41 41 41 41 41 41 40 40
18 20 21 22 22 21 20 19 18 17 19 20 19 18 19 19 17 16 15 14 13 12 12 11 10 9 7 7 8 8 8 8 8 9 10 11 10 10 10 11 11 12 12 13 14 15 16 17 18 19 20 20 21 22 23 25 25 26 28 29 30 31 32 33 33 33 34 35 36 38 39 38 42 45 45 45 44 42 41 42 41 41 42 42 41 40 39 39
18 20 20 21 21 22 21 20 19 19 20 20 19 19 20 20 18 16 15 14 13 12 11 11 11 9 8 8 9 9 8 8 9 10 10 10 9 9 10 10 11 11 12 13 14 16 17 18 19 20 21 22 23 24 26 27 28 29 30 31 32 32 34 34 34 35 36 37 37 40 41 40 43 47 46 45 43 41 41 41 42 42 42 41 40 39 38 38
16 17 17 17 18 21 22 21 21 21 21 20 19 20 21 21 19 16 15 14 13 12 12 11 11 9 9 9 9 9 9 9 9 9 9 9 8 8 9 10 11 11 12 13 15 16 18 19 20 21 23 24 25 26 28 29 31 31 32 33 34 34 35 36 36 37 38 39 39 42 43 42 45 47 46 45 42 41 41 41 42 42 41 40 39 38 38 37
15 14 14 13 15 19 22 22 22 22 21 20 20 21 22 21 19 16 15 14 13 12 12 11 10 9 9 9 10 10 9 9 9 9 8 8 7 7 8 10 11 12 13 14 16 17 19 20 21 23 24 25 27 28 30 31 33 34 35 35 36 36 36 37 38 39 40 41 41 44 45 44 46 47 45 43 41 41 41 42 42 41 40 39 38 37 37 36
15 15 14 14 15 18 20 21 21 21 20 20 20 21 22 21 18 16 15 14 13 12 11 11 10 9 9 10 10 10 9 9 9 9 8 8 8 8 9 10 12 13 14 15 17 19 20 22 23 25 26 28 29 31 32 33 35 36 37 37 37 37 37 38 39 40 41 43 44 46 46 45 46 46 44 42 41 41 42 42 42 41 39 38 37 37 37 36
16 16 16 16 16 17 18 20 21 20 20 20 20 21 21 21 18 16 15 14 13 12 11 10 10 9 9 10 10 9 9 9 9 9 9 9 9 10 11 12 14 15 16 17 19 21 22 24 25 27 28 30 31 33 34 35 36 37 38 38 38 39 39 39 40 42 44 45 46 48 47 44 44 44 42 41 41 42 42 42 41 40 38 38 37 37 36 35
18 19 19 18 18 18 18 18 18 20 21 21 21 21 22 21 19 17 16 14 13 12 10 10 10 10 10 11 10 10 9 9 9 9 10 11 11 12 13 15 16 17 18 20 21 23 25 26 28 29 30 32 33 34 36 37 37 38 39 39 39 40 40 41 42 44 46 48 49 50 49 45 43 42 41 41 42 42 42 41 40 38 37 37 37 37 36 35
15 17 18 19 19 19 19 18 16 19 23 22 21 21 21 20 19 17 16 14 13 12 11 10 11 11 12 12 12 11 11 11 11 11 12 13 14 15 16 17 19 20 21 22 24 25 27 28 30 31 32 34 35 36 37 38 38 39 40 40 41 41 42 43 45 46 47 49 51 51 51 47 43 41 41 41 42 42 42 40 38 37 37 38 38 37 36 35
12 14 15 17 18 19 19 18 16 17 22 24 21 20 21 19 18 16 16 15 13 13 12 12 12 13 13 13 12 12 12 13 13 14 14 15 16 18 19 20 21 22 23 25 26 27 29 30 31 33 34 35 36 37 39 39 39 40 41 41 42 43 44 47 48 49 49 50 50 50 50 47 43 41 41 43 43 42 41 38 36 36 37 39 39 38 37 36
11 12 13 15 16 17 18 17 16 16 19 23 22 20 20 19 18 16 16 14 14 13 12 13 13 14 14 13 13 13 13 14 15 16 16 18 19 20 21 22 23 24 25 26 27 29 31 32 33 35 36 36 38 39 40 40 40 41 41 42 43 45 47 49 50 51 52 51 49 49 49 47 44 41 42 45 44 41 38 36 36 36 38 39 39 39 38 37
9 11 13 14 15 16 17 16 15 15 17 20 21 20 19 19 18 16 16 15 14 14 14 14 15 15 15 15 15 15 15 16 17 18 18 19 20 21 22 24 25 26 27 28 29 30 32 34 35 36 37 38 39 40 41 41 42 42 42 44 45 47 49 51 51 52 52 52 50 48 47 46 44 41 42 44 42 39 37 36 36 37 38 40 40 39 38 37
7 9 12 14 16 16 16 15 15 15 16 17 18 18 19 19 18 16 16 15 15 15 15 16 16 16 17 16 17 17 18 19 19 19 20 21 22 23 24 25 27 27 28 30 31 32 34 35 37 38 38 39 40 41 41 42 43 43 44 46 48 50 51 52 52 52 52 51 49 46 46 46 44 41 43 43 40 38 37 37 37 37 39 40 39 38 37 36
9 10 12 14 16 17 17 17 16 16 17 17 18 18 18 18 17 16 16 16 16 16 16 17 17 18 18 17 17 18 19 20 20 20 21 22 23 25 26 27 28 29 30 32 33 34 36 37 38 39 40 41 41 41 42 43 44 45 46 48 50 52 52 53 53 52 51 50 48 46 45 46 44 43 44 43 41 39 38 38 39 38 39 39 38 37 36 37
11 13 14 15 16 17 18 18 18 18 18 18 18 18 18 17 16 16 16 16 16 17 18 18 17 18 18 18 18 19 20 21 21 22 23 24 25 27 28 29 30 31 31 33 35 36 37 39 40 41 41 41 41 42 42 44 45 47 49 51 52 52 53 53 52 52 51 49 48 46 46 47 45 43 44 43 41 41 39 39 39 38 38 37 36 36 37 40
13 14 15 16 16 17 18 18 19 20 20 20 19 19 18 17 17 16 16 17 18 18 19 18 18 18 18 18 19 20 21 22 23 24 25 26 27 29 30 31 31 32 34 35 36 38 39 40 41 42 42 42 42 42 43 45 47 49 51 52 52 53 53 53 52 51 50 49 48 47 46 47 45 42 43 43 42 42 40 38 37 37 37 35 36 38 40 43
15 15 14 15 16 16 16 16 16 17 19 20 20 20 19 18 17 16 15 17 19 19 19 19 19 20 20 20 21 22 23 24 25 26 27 28 30 31 32 33 34 34 35 36 38 39 40 41 42 42 42 42 42 43 44 46 48 50 51 52 52 52 52 52 52 51 51 50 49 47 46 46 43 40 41 43 44 44 40 38 39 38 36 36 37 40 42 45
16 14 13 14 14 14 15 15 15 15 17 19 20 22 22 19 18 17 17 19 20 19 19 20 21 21 22 22 23 24 25 26 27 28 29 30 31 32 33 35 36 37 38 38 39 40 41 42 42 42 42 42 43 44 46 48 49 50 50 50 51 52 53 53 52 52 52 51 50 48 47 44 41 39 40 42 43 42 39 40 41 40 39 40 41 41 43 46
16 15 14 14 13 14 14 14 14 13 13 15 17 18 20 19 18 18 19 20 19 18 19 20 21 22 23 23 24 26 27 28 29 30 31 32 33 33 35 36 38 39 40 40 41 42 42 42 42 43 43 44 45 46 48 48 49 48 49 49 50 51 53 54 54 53 53 53 51 49 46 42 39 38 40 41 40 40 40 41 43 43 43 45 46 46 47 49
15 14 14 14 13 14 13 11 10 9 9 10 11 12 14 16 17 18 19 19 19 19 20 21 21 22 24 25 26 28 29 30 30 31 32 33 34 34 36 37 38 39 41 42 42 43 43 43 43 44 45 46 46 47 47 48 48 47 47 48 49 50 51 53 54 54 54 54 52 49 45 40 38 38 39 40 40 41 43 43 44 44 45 47 49 51 53 54
14 13 13 13 13 13 12 10 8 8 8 8 9 10 12 13 15 16 17 17 18 19 20 22 23 23 24 26 28 29 30 31 30 31 32 33 35 36 37 38 39 40 41 42 43 43 44 44 44 46 46 47 47 47 46 46 47 47 47 48 49 49 50 52 53 53 54 55 53 49 43 38 35 35 38 41 42 44 45 45 45 45 46 48 51 53 55 57
12 12 13 13 13 13 13 10 9 8 8 8 9 10 12 13 14 15 16 17 18 19 21 22 24 25 25 26 28 29 30 31 31 32 33 34 35 36 37 38 39 40 41 42 43 44 45 45 46 47 47 46 46 45 45 45 46 47 48 48 49 50 50 51 52 53 54 56 54 49 43 37 35 35 36 39 42 43 45 47 47 46 48 51 53 55 57 57
12 12 13 13 13 14 14 12 9 8 7 8 9 10 12 13 14 15 16 17 18 19 21 22 23 25 26 26 27 28 30 31 32 33 33 34 35 36 37 38 39 40 41 42 43 44 46 46 47 46 45 45 45 45 44 44 45 47 48 48 49 51 51 50 53 54 54 56 55 52 45 38 36 36 36 38 42 43 45 47 47 48 49 52 54 55 56 58
12 12 14 14 13 14 15 14 11 9 9 10 11 11 12 14 15 16 17 18 18 19 21 22 23 24 25 26 27 28 29 30 32 33 34 35 35 37 38 39 40 41 42 43 44 45 46 47 46 45 44 44 44 45 44 44 45 46 47 48 48 50 50 51 52 53 54 56 56 55 49 40 37 38 38 42 47 47 47 48 49 50 51 53 55 56 58 59
11 11 15 16 14 14 16 16 14 12 12 12 13 13 13 14 16 17 18 19 19 20 21 23 24 25 26 27 28 29 30 31 32 33 34 35 36 37 38 39 40 41 42 43 44 45 46 47 47 46 45 45 45 45 45 45 46 46 46 47 47 48 49 50 51 51 52 54 56 57 53 44 39 40 42 47 51 51 51 52 52 54 55 56 59 59 61 62
10 10 14 17 16 15 16 16 15 14 14 14 14 14 14 15 17 18 18 19 20 21 22 23 25 26 26 27 29 30 30 31 32 33 35 36 37 38 39 40 41 42 43 43 44 45 46 47 47 46 45 45 45 44 45 45 46 46 46 46 47 47 48 50 50 48 49 51 53 56 56 47 41 42 46 51 53 53 54 55 56 56 57 59 61 62 63 64
7 5 7 11 13 14 14 14 15 15 15 14 15 15 16 16 17 18 19 19 20 21 23 24 25 26 27 28 29 30 31 32 33 34 35 36 38 39 39 40 41 42 43 44 45 46 47 47 47 46 45 44 43 43 44 44 44 45 45 45 45 46 47 50 50 48 48 49 50 54 57 49 41 44 50 53 54 55 55 57 57 58 59 61 62 63 64 66
5 5 4 5 7 10 11 13 14 14 14 15 15 16 16 17 18 19 19 20 21 22 23 24 25 26 28 29 30 31 32 33 34 35 36 37 38 39 40 41 42 42 43 44 45 46 47 47 46 45 44 43 42 42 43 42 42 43 44 44 44 44 45 47 50 50 50 50 49 53 57 51 44 47 53 54 55 56 57 58 59 59 61 62 63 64 66 68
5 7 5 4 6 9 11 12 13 14 14 15 16 17 17 18 19 19 20 21 21 22 23 24 26 27 28 29 30 32 33 34 34 35 37 37 38 39 40 41 42 43 43 44 45 45 46 46 46 45 43 41 40 40 40 40 40 41 42 42 43 43 44 45 47 50 52 51 50 53 57 54 50 51 54 56 56 57 58 59 60 61 62 63 65 66 67 68
5 6 5 5 7 9 10 11 12 13 14 16 16 17 18 18 19 20 20 21 22 23 24 25 26 27 29 30 31 32 34 35 35 36 37 38 39 40 40 41 42 43 43 44 44 45 45 45 45 44 42 40 38 38 37 37 38 39 40 42 42 43 44 45 47 50 52 53 52 53 56 55 53 53 55 56 57 58 59 60 61 62 63 64 66 67 68 69
2 3 5 7 8 9 10 11 12 13 15 16 17 17 18 18 19 20 20 22 23 24 25 26 27 28 30 31 32 33 34 35 36 36 37 38 39 40 41 41 42 43 43 44 43 43 43 41 41 41 40 38 39 39 39 39 39 40 41 42 43 44 45 47 48 50 53 54 54 54 55 55 53 54 57 58 59 60 61 61 62 64 65 67 68 69 71 73
2 4 6 7 8 9 10 11 12 13 14 15 16 17 18 18 19 20 21 22 23 24 26 27 28 29 30 31 32 33 33 35 36 37 37 38 39 40 40 41 41 41 41 41 41 40 39 36 36 36 35 36 38 40 42 43 43 44 44 45 46 47 47 48 49 50 52 55 55 55 56 56 55 56 60 61 62 63 64 65 66 66 67 69 70 72 73 75
5 6 7 8 8 9 10 11 12 13 14 15 17 18 18 19 19 20 21 23 24 25 26 27 28 29 30 31 31 32 33 34 35 36 37 38 38 39 39 39 39 38 38 38 37 37 35 33 33 34 33 35 38 40 43 45 46 48 48 48 48 49 49 49 48 49 51 54 55 55 57 59 58 59 62 63 64 66 66 67 68 68 69 70 72 73 74 76
7 7 8 9 9 9 10 11 13 14 15 16 17 18 19 19 20 21 22 23 24 25 26 27 28 29 30 31 32 33 33 34 35 35 36 36 36 36 35 35 35 35 35 35 35 36 36 34 34 34 34 36 40 42 44 46 48 50 50 50 50 50 50 49 48 49 51 54 56 57 58 59 60 61 62 64 66 67 67 67 67 68 70 71 73 74 76 78
7 8 8 9 10 10 11 12 14 14 15 16 17 18 19 20 21 21 22 23 24 25 26 27 28 29 30 31 32 33 33 34 34 33 33 33 33 33 33 33 33 34 34 35 35 37 38 38 38 37 36 37 41 44 45 47 48 50 50 49 49 49 49 49 49 49 51 54 56 57 58 58 60 62 63 64 65 66 66 66 67 68 71 73 74 76 79 81
7 8 9 10 10 11 12 13 14 14 15 16 17 18 19 20 20 21 22 23 24 25 26 27 28 29 30 30 31 32 32 32 32 31 31 31 31 32 33 33 34 35 36 37 38 39 41 41 41 42 40 39 42 45 45 46 48 48 48 47 47 48 49 50 49 50 53 56 57 58 58 59 60 62 62 63 64 66 66 67 68 70 72 75 77 79 82 84
7 8 10 10 11 12 12 13 14 15 15 16 17 18 19 19 20 21 23 24 25 25 26 27 27 28 29 29 30 30 30 30 31 31 31 32 32 34 35 35 36 37 38 39 40 41 43 44 44 45 44 42 43 45 45 45 47 47 47 46 47 49 51 51 51 51 55 58 59 59 60 60 61 61 61 62 64 67 69 70 72 74 76 79 81 84 86 88
8 9 10 11 11 12 13 14 15 15 16 17 18 18 19 20 21 22 23 24 25 25 25 26 26 27 28 28 29 29 30 30 31 32 33 34 34 35 37 37 39 40 40 42 42 43 45 46 46 47 46 44 43 44 44 45 47 48 47 47 49 51 52 52 52 52 55 59 59 59 60 61 62 62 63 63 64 67 71 74 75 78 80 82 85 87 88 87
Wind_Direction
204 205 206 209 211 215 219 219 217 217 214 203 192 195 196 185 181 177 171 171 169 167 168 171 174 175 170 162 162 160 162 169 169 163 156 160 155 143 142 148 142 2 327 329 329 334 331 328 330 327 323 319 313 307 306 308 307 308 311 312 312 308 305 302 301 301 300 301 303 304 303 303 303 304 305 305 306 307 308 309 308 307 308 309 309 309 309 308
206 206 206 207 209 212 218 219 218 218 214 207 202 207 204 193 189 183 176 174 174 172 172 177 181 182 179 168 167 173 182 191 194 197 191 188 179 166 159 165 316 335 328 332 336 336 336 337 339 335 332 329 323 318 319 321 318 317 318 316 313 307 304 302 301 302 301 303 304 303 303 302 303 304 305 307 308 309 310 309 309 309 310 310 310 310 310 309
206 207 207 207 208 210 216 219 219 217 214 210 209 216 209 198 195 188 179 175 176 175 175 182 188 190 188 182 182 188 197 204 211 223 224 217 201 182 178 223 301 318 321 329 335 337 340 343 344 341 340 341 336 333 333 329 325 322 319 316 311 306 305 305 304 305 305 305 304 304 303 302 304 305 307 308 309 311 311 310 310 310 311 311 311 311 311 310
208 207 208 209 209 211 215 219 218 215 214 213 214 224 213 199 198 191 181 178 177 176 178 185 192 195 195 193 194 199 204 211 219 224 226 223 210 196 210 257 290 307 317 325 331 334 341 346 347 345 346 347 342 339 337 333 328 324 319 316 312 309 309 310 309 309 308 307 305 304 303 303 305 306 308 309 309 312 312 311 311 311 312 312 313 313 312 311
212 209 209 211 212 213 217 218 216 212 214 216 219 228 214 199 198 192 184 180 179 178 180 187 194 198 201 204 206 212 219 225 228 224 223 222 214 217 246 266 283 298 308 315 322 330 340 346 346 345 346 347 343 340 337 332 328 324 321 318 315 313 313 314 312 310 309 307 306 305 305 305 305 307 309 309 311 314 313 312 312 312 313 314 314 313 312 311
215 213 211 212 213 216 217 216 214 211 213 218 223 227 209 198 197 192 187 183 181 180 183 189 196 200 206 211 218 231 240 243 240 231 226 226 231 258 270 275 285 294 301 309 320 329 338 342 340 340 342 343 341 338 335 331 326 323 322 320 317 316 315 315 313 310 309 306 306 306 305 305 305 308 310 310 312 314 313 313 313 313 315 315 315 313 311 310
217 216 215 214 214 215 216 213 211 209 211 218 225 222 203 197 196 192 188 185 182 183 187 192 198 202 208 214 225 241 251 252 247 240 238 244 262 278 279 284 289 294 303 312 321 328 335 336 334 335 336 337 335 333 332 328 324 321 321 320 317 316 316 314 312 310 308 306 306 306 307 307 307 310 312 312 314 315 314 314 314 315 316 315 314 312 311 309
216 216 217 218 216 215 214 213 212 212 214 221 227 216 201 198 196 192 189 187 185 186 190 196 202 207 211 217 228 245 263 266 259 255 258 269 281 287 288 290 293 302 309 313 319 326 331 329 329 330 329 330 328 328 327 323 321 320 319 318 316 315 314 312 311 310 308 307 308 309 310 310 308 311 313 313 315 316 315 315 315 315 316 315 313 311 310 309
214 215 216 219 219 216 215 214 216 218 217 222 224 211 200 198 195 192 191 189 187 189 194 201 208 214 218 224 238 262 283 284 275 271 275 283 291 297 298 298 301 305 306 309 317 323 324 323 324 325 324 325 324 323 321 319 318 317 317 316 315 313 312 312 311 310 308 309 311 312 314 311 309 312 313 314 316 316 315 315 315 315 316 314 312 311 310 309
210 213 213 214 214 214 215 216 218 219 216 217 213 202 197 196 195 193 192 192 191 192 197 205 213 219 225 232 253 278 291 291 286 282 283 291 298 302 302 303 302 301 304 310 316 316 317 319 320 321 321 321 320 319 317 315 315 315 316 315 313 312 312 312 311 309 309 311 312 315 316 312 310 312 313 316 318 317 317 316 315 316 316 313 312 311 310 310
207 210 210 209 207 208 213 216 217 216 213 209 200 195 194 195 196 193 191 194 194 194 199 206 214 220 226 237 258 282 292 293 293 291 292 299 302 302 301 300 300 302 308 311 310 310 312 316 317 317 317 317 316 315 313 314 316 316 315 314 314 314 313 313 312 311 311 313 314 315 318 314 311 313 315 318 320 319 317 316 315 316 315 313 312 311 310 310
208 207 207 206 204 205 210 213 214 213 210 201 194 194 194 195 198 194 191 195 196 197 201 208 215 220 228 239 260 280 289 291 294 296 299 302 301 299 298 299 301 305 307 306 306 308 311 314 315 314 314 314 313 313 315 317 318 317 316 317 317 316 314 314 315 314 314 315 315 315 320 317 313 314 317 320 321 319 317 316 316 316 314 313 312 311 311 311
214 209 206 204 202 203 206 207 209 212 208 196 195 197 195 197 199 194 192 196 196 199 204 212 218 224 233 244 260 274 284 290 293 299 303 302 299 297 297 299 300 301 301 302 305 308 312 313 312 312 313 312 312 316 320 320 319 319 320 319 319 317 315 316 317 317 316 317 317 316 321 321 316 315 318 321 321 319 318 316 317 316 314 313 312 312 312 312
216 209 206 203 200 201 202 201 204 211 206 196 197 199 197 198 198 194 194 195 196 201 207 214 219 227 238 248 260 270 282 290 295 301 302 299 299 298 297 297 296 296 298 302 307 311 313 312 311 313 313 314 317 321 322 321 321 321 321 320 319 318 316 317 318 318 318 319 319 317 321 323 318 316 319 321 321 320 318 316 317 315 313 313 313 313 313 312
202 197 199 198 196 197 198 199 203 208 204 198 200 201 198 200 198 196 197 197 198 203 210 216 221 230 241 252 261 268 280 291 297 299 298 297 299 300 298 296 296 297 301 307 312 314 314 313 314 315 316 318 321 322 320 320 321 321 320 319 319 319 318 318 319 319 319 320 320 318 321 324 319 318 320 321 321 320 318 316 316 314 313 314 314 314 314 313
184 185 190 193 191 193 196 199 203 204 199 198 201 201 200 201 200 199 200 199 199 205 213 218 222 230 241 252 259 266 278 289 293 293 294 295 299 301 300 300 301 303 309 315 318 317 316 316 316 317 318 320 320 321 319 319 320 319 319 319 319 319 318 319 319 319 319 320 321 319 322 324 320 319 322 321 321 320 317 316 316 314 314 315 315 315 314 313
178 181 187 193 195 196 197 199 201 198 196 198 201 202 202 202 202 201 201 200 201 206 213 219 225 232 241 251 258 266 276 282 286 289 291 293 297 302 304 306 308 312 317 320 320 319 319 318 318 318 319 319 318 318 318 318 318 318 319 319 319 320 318 318 319 319 320 320 321 320 322 324 321 321 322 321 321 320 317 316 315 315 316 316 316 315 314 313
178 181 187 194 198 199 198 197 196 195 196 200 202 202 203 204 204 203 203 201 202 207 212 220 227 233 241 250 257 264 271 277 281 283 286 291 298 305 309 312 314 317 319 320 321 320 320 319 319 318 317 317 317 317 317 318 318 318 319 319 320 320 319 319 319 319 320 320 321 320 321 323 321 321 322 321 321 318 316 315 315 316 317 317 316 315 313 312
175 178 184 188 190 193 194 194 195 196 198 202 204 205 206 207 206 204 205 204 205 208 213 221 228 234 242 249 256 263 269 275 277 278 282 287 296 303 307 311 314 317 318 318 320 320 319 318 318 317 316 316 316 317 317 318 318 319 320 320 320 320 320 319 319 320 319 320 321 320 321 323 321 321 321 321 320 318 316 315 315 317 317 316 315 314 312 311
182 186 190 191 190 192 195 198 199 200 201 205 207 207 209 210 209 209 209 208 209 212 215 223 231 236 243 250 255 261 267 272 275 277 279 284 291 297 301 307 310 313 315 316 317 317 317 317 317 316 316 317 317 317 318 319 319 319 319 319 319 319 320 320 319 319 319 319 320 320 322 323 322 322 322 320 320 318 316 315 315 317 316 315 313 312 311 310
196 199 200 200 201 202 205 208 209 207 206 208 210 210 211 211 211 213 214 212 213 215 218 226 234 238 242 248 251 255 261 266 271 275 279 284 290 294 299 304 306 309 312 314 315 316 316 316 317 317 317 317 317 318 318 318 319 318 318 318 318 318 319 319 319 319 318 319 320 320 322 324 323 322 321 320 319 317 316 315 316 316 315 313 312 311 311 310
206 208 209 209 210 212 218 223 220 216 213 212 212 212 212 213 213 215 217 217 217 218 222 228 234 236 239 243 246 249 253 257 264 273 280 284 288 293 298 302 304 307 310 312 313 315 315 315 316 316 317 317 318 318 318 318 318 317 317 317 317 317 317 318 318 318 318 319 319 320 322 324 324 322 321 320 318 316 315 315 316 316 314 311 311 311 311 309
214 215 216 217 217 220 226 234 234 225 218 215 214 214 214 216 217 218 220 221 221 221 224 229 233 236 238 241 244 247 250 255 263 273 280 284 287 291 295 299 303 306 308 310 312 313 314 314 315 316 316 317 317 317 317 317 317 316 316 316 317 317 317 317 317 318 319 319 320 320 321 323 324 322 322 320 317 315 315 316 316 315 312 310 310 311 310 308
221 219 220 221 224 228 232 238 242 233 221 216 214 214 217 220 222 222 223 223 223 223 225 230 234 238 241 243 247 249 252 259 267 273 279 284 288 291 294 298 302 304 307 308 310 312 312 313 314 315 315 316 316 316 316 316 316 315 316 316 316 316 316 317 317 318 318 319 320 320 321 323 324 324 323 320 317 316 316 316 316 314 311 309 310 310 310 308
230 227 227 228 229 233 237 240 242 237 226 220 216 214 218 223 225 227 227 225 224 225 229 234 236 240 244 247 251 253 257 264 270 274 280 286 290 293 296 298 301 303 305 306 308 310 311 311 313 313 314 315 315 314 315 315 314 314 315 315 315 315 316 316 316 317 317 318 319 320 321 323 325 326 323 319 317 317 316 316 315 313 310 309 309 309 309 308
239 236 235 236 236 236 239 240 240 237 232 227 223 219 220 225 228 230 229 226 226 227 231 237 241 244 248 250 255 259 264 268 272 276 282 287 291 295 298 299 300 302 303 304 306 308 309 311 312 312 313 314 314 314 314 314 313 313 314 314 314 314 315 315 315 316 316 318 319 321 321 322 325 325 321 318 317 316 315 316 314 312 309 308 308 309 308 307
261 250 243 239 238 239 241 240 238 238 235 232 229 226 225 228 231 231 230 228 228 231 235 240 244 247 251 254 259 265 269 271 273 277 282 288 292 296 298 300 300 301 302 303 305 308 309 310 311 311 313 313 313 313 313 313 313 313 313 313 313 314 314 314 315 315 316 317 319 320 320 321 324 324 320 318 317 315 316 315 313 312 309 308 308 308 308 308
276 262 251 242 238 239 242 242 239 237 235 233 230 229 229 231 232 231 231 230 231 235 238 242 246 249 254 258 263 267 271 273 275 278 283 289 293 295 297 299 300 301 302 303 305 308 309 309 310 311 312 312 312 312 312 312 312 312 312 312 313 313 313 313 314 314 315 317 317 319 319 320 324 325 320 318 317 316 317 314 312 311 309 308 309 309 309 309
280 265 253 243 237 237 241 243 241 237 234 232 231 231 231 232 233 231 232 233 235 238 242 245 248 252 256 260 265 268 271 274 277 281 285 289 292 295 298 299 300 301 302 303 305 307 308 308 310 311 311 311 311 311 311 311 311 311 311 312 312 312 313 313 313 314 315 316 316 318 320 321 325 326 320 319 317 316 316 313 311 310 309 309 310 310 311 310
279 266 253 243 238 239 242 243 242 239 236 233 231 232 234 235 235 234 236 238 238 241 246 248 251 255 258 261 266 270 273 276 280 284 286 289 292 295 298 299 300 301 301 303 305 306 307 308 309 310 311 311 311 310 310 310 310 311 311 311 311 312 312 312 313 313 314 314 315 318 321 322 326 326 320 319 317 315 315 312 310 311 310 310 311 312 313 311
274 263 254 246 241 243 246 245 244 243 240 234 230 232 236 238 240 239 241 242 242 246 250 252 254 257 261 265 269 273 276 279 282 285 287 290 293 296 298 299 300 300 301 303 305 305 307 308 309 310 310 310 310 309 309 309 310 310 310 311 311 311 311 311 312 313 313 313 315 318 321 324 327 326 321 318 316 315 315 312 311 312 310 311 313 314 313 310
269 258 252 250 246 247 249 247 246 246 242 237 234 236 238 242 247 245 243 244 247 251 254 255 256 260 265 269 272 274 277 280 283 285 288 291 294 296 298 300 301 301 301 303 304 305 307 308 309 309 309 309 309 309 309 309 309 310 310 310 311 311 311 312 312 313 312 313 315 317 321 325 327 325 320 317 315 315 314 312 311 312 312 314 314 313 310 308
264 251 246 248 250 255 255 246 242 243 243 242 241 242 242 244 246 245 245 249 253 256 257 259 261 265 269 272 274 275 277 280 284 286 289 291 294 296 298 300 301 302 303 304 304 305 307 308 309 309 309 309 309 309 309 309 310 310 311 311 311 311 311 311 312 312 312 313 315 317 321 325 326 324 320 315 313 313 311 310 310 312 315 316 314 311 309 309
258 243 242 247 254 257 246 232 232 238 241 245 246 247 245 243 243 246 250 256 260 261 263 265 267 269 272 275 276 277 279 281 284 287 289 292 294 296 298 300 301 302 303 304 304 306 307 308 309 308 308 309 309 309 309 310 310 311 311 310 310 309 309 310 311 311 311 312 313 316 320 325 326 323 317 313 313 311 309 307 308 312 315 314 311 311 311 312
247 235 239 246 253 247 224 211 224 235 240 246 247 248 248 245 248 253 258 262 264 266 268 270 271 272 275 277 279 280 282 283 286 288 291 293 295 297 299 300 301 302 303 304 305 306 307 308 309 308 309 309 309 309 310 310 310 310 310 309 309 308 307 309 310 310 310 310 311 314 319 324 324 319 315 313 312 309 306 305 308 312 313 311 310 311 312 312
237 233 238 244 248 234 212 207 220 232 243 251 250 251 254 255 257 260 263 266 268 270 271 274 276 277 278 280 282 283 285 287 289 290 292 295 296 298 299 300 302 303 303 305 306 307 307 308 309 309 310 310 310 310 310 310 310 310 310 309 308 307 308 309 309 309 310 309 311 314 318 324 323 317 315 312 307 304 303 306 311 313 312 311 311 311 311 310
228 233 238 240 240 227 212 207 216 233 251 260 261 261 264 266 267 268 270 271 272 274 275 277 279 280 282 283 284 286 287 289 291 292 294 296 298 299 300 301 303 304 305 306 306 307 308 308 309 310 310 310 310 310 310 310 310 309 309 309 308 307 308 309 309 310 310 310 312 314 319 326 324 318 316 307 300 300 303 308 312 312 310 310 310 309 308 307
225 232 236 233 229 223 216 212 218 237 256 265 269 270 271 274 274 276 277 278 279 280 281 281 281 283 285 286 287 288 289 291 294 295 296 299 300 301 301 303 304 305 306 307 307 308 308 308 309 310 310 310 310 310 310 310 309 308 309 309 308 308 310 310 310 312 312 312 314 315 319 327 325 320 315 305 301 305 309 311 311 310 309 308 307 307 306 305
226 232 237 230 221 219 219 219 224 239 254 264 271 274 275 277 278 280 281 283 285 285 286 287 287 289 290 290 291 292 293 296 297 299 300 302 302 303 304 305 306 307 308 308 309 309 309 309 309 310 311 310 310 310 311 310 309 309 309 308 308 309 309 309 310 312 313 313 315 316 318 325 327 322 313 306 307 311 313 312 311 310 310 309 308 308 307 307
223 233 240 234 225 222 222 224 228 238 252 265 274 277 278 279 281 282 284 287 288 289 290 291 292 293 294 294 295 296 298 300 302 303 304 305 305 305 306 307 308 308 309 309 309 309 308 308 309 310 311 310 311 312 311 310 309 310 309 309 309 309 310 310 310 313 313 313 315 315 315 322 328 320 311 308 310 313 313 311 311 311 310 309 308 309 309 309
214 217 237 233 228 228 226 227 232 242 257 270 277 279 281 283 284 287 290 291 292 293 294 295 296 297 298 300 301 301 302 304 305 306 306 307 306 307 307 308 308 309 309 309 309 308 308 308 309 311 311 311 312 312 311 310 310 310 310 309 310 310 311 311 312 314 313 313 315 313 312 321 326 316 310 311 312 312 311 310 310 310 309 309 309 309 310 309
200 170 172 202 222 232 231 234 243 254 267 276 281 284 286 287 289 293 295 295 296 298 299 300 302 303 304 305 305 305 305 306 308 308 307 307 307 308 308 309 309 309 309 309 309 309 309 309 310 311 311 313 314 312 311 310 311 311 310 310 311 312 313 312 313 314 312 313 315 312 312 320 323 315 312 312 311 311 310 310 309 310 310 309 309 310 310 310
205 182 182 208 236 243 243 249 260 266 275 284 288 290 290 292 295 298 299 299 301 302 303 305 306 306 306 306 306 307 307 307 308 308 308 308 308 309 309 310 310 309 309 309 309 309 309 310 311 311 313 315 314 312 311 312 312 312 311 311 312 313 313 312 312 312 312 313 314 312 313 319 319 315 313 311 310 310 310 309 309 310 310 310 310 311 312 312
210 203 219 247 257 256 255 262 271 277 286 292 294 294 294 296 298 299 301 302 304 306 306 307 307 307 307 307 308 308 308 308 309 309 309 309 310 311 311 310 311 310 310 310 310 311 311 313 314 314 316 318 316 313 313 314 314 313 313 312 313 314 313 312 312 312 312 313 313 312 314 315 315 314 311 309 309 309 309 309 310 311 311 312 313 313 314 314
210 230 262 274 272 269 269 276 283 288 293 295 295 296 297 299 301 302 304 305 306 307 307 307 308 308 308 309 309 309 310 310 310 311 311 311 312 312 312 312 312 312 312 312 312 312 314 316 318 319 322 323 320 318 318 318 318 316 314 314 314 315 314 314 314 314 313 313 313 313 312 312 314 313 310 309 310 310 311 312 313 314 316 316 316 316 316 316
295 290 290 291 286 284 287 291 292 293 294 295 297 299 301 304 305 306 307 307 308 308 308 309 309 309 309 310 310 311 311 311 312 313 313 313 313 313 313 314 313 313 313 313 314 315 318 321 322 323 325 324 321 320 320 320 320 317 316 316 316 316 315 315 315 314 313 312 312 313 311 311 314 313 311 311 313 313 315 316 316 318 318 317 317 318 318 318
311 306 303 302 299 298 298 297 296 296 297 299 300 302 305 306 308 308 308 308 309 309 309 309 309 310 310 311 312 312 313 314 314 315 315 315 315 315 316 316 316 316 317 318 319 320 322 324 324 324 326 324 320 319 320 320 319 317 317 317 317 316 316 315 315 314 313 311 311 312 311 313 315 314 313 314 315 315 317 318 318 319 318 318 319 318 318 318
312 311 308 306 305 305 303 301 301 302 302 302 303 304 306 307 308 309 309 309 309 310 310 310 311 312 312 314 314 315 316 316 316 317 317 318 318 319 319 320 320 320 321 321 322 322 322 324 322 323 326 323 319 319 320 319 317 316 316 317 317 316 316 315 315 314 313 311 311 312 313 314 315 314 314 315 316 317 318 319 319 319 319 319 318 317 317 318
312 310 307 307 307 307 307 306 306 306 305 305 306 307 307 308 309 310 310 310 311 312 312 313 314 315 316 317 317 318 318 319 320 321 321 322 322 322 323 323 323 323 323 323 323 321 321 321 320 321 323 322 318 318 319 318 315 315 315 316 316 316 315 314 315 314 312 310 310 312 313 314 314 314 315 316 317 317 318 319 319 320 319 318 317 317 318 318
311 308 306 308 308 308 309 310 308 308 309 308 309 309 309 310 312 312 312 313 314 315 316 317 318 319 319 320 321 321 322 323 324 325 325 326 325 324 324 323 323 323 323 322 322 320 320 320 320 320 321 321 318 318 318 316 314 313 314 315 315 314 314 314 314 313 311 310 310 312 314 314 314 315 317 318 318 318 319 319 320 319 318 317 317 318 318 318
308 307 307 309 311 312 312 312 311 312 312 312 312 313 313 314 315 315 316 317 318 319 320 321 322 322 323 324 325 325 327 327 327 327 327 326 326 324 323 323 322 322 322 321 321 320 319 320 319 319 320 321 319 318 317 316 313 312 314 315 315 313 313 312 312 312 311 311 313 315 316 316 316 317 318 319 320 320 320 320 320 319 319 319 319 320 319 319
312 313 313 314 317 316 315 315 315 314 315 315 315 316 316 317 317 318 319 320 321 322 323 324 325 326 326 327 328 328 328 328 328 327 326 326 325 324 323 322 321 321 321 320 320 320 319 319 319 318 319 320 319 318 317 315 313 312 313 314 314 312 312 312 312 313 313 314 317 318 318 318 319 319 319 319 320 320 320 320 320 320 320 320 320 320 320 320